FW5829 Weather Reports


time (UTC)temp
F
wind
direction
speed
knots
gust
knots
rain 1hr
in
rain 24hr
in
rain mn
in
humidity
%
barometer
mb
20260506033005 53 142 5.2 9.6 0.00 0.00 0.00 86 1008.8
20260506031515 53 200 6.1 13.9 0.00 0.00 0.00 86 1008.8
20260506030002 53 195 4.3 11.3 0.00 0.00 0.00 86 1009.0
20260506024506 53 222 6.1 11.3 0.00 0.00 0.00 86 1008.8
20260506023000 53 169 7.0 13.9 0.00 0.00 0.00 85 1009.1
20260506021608 54 181 5.2 12.2 0.00 0.00 0.00 84 1009.2
20260506020059 55 179 7.0 11.3 0.00 0.00 0.00 83 1009.0
20260506014612 56 191 5.2 11.3 0.00 0.00 0.00 82 1009.0
20260506013057 56 147 5.2 10.4 0.00 0.00 0.00 80 1009.0
20260506011556 57 187 5.2 11.3 0.00 0.00 0.00 79 1008.9
20260506010104 57 174 5.2 10.4 0.00 0.00 0.00 79 1008.7
20260506004555 57 190 4.3 10.4 0.00 0.00 0.00 79 1008.4
20260506003054 58 214 5.2 10.4 0.00 0.00 0.00 78 1008.1
20260506001556 58 207 4.3 9.6 0.00 0.00 0.00 78 1007.6
20260506000053 58 172 4.3 7.8 0.00 0.00 0.00 78 1008.0
20260505234550 58 172 3.5 13.0 0.00 0.00 0.00 78 1008.2
20260505233057 55 189 9.6 20.9 0.00 0.00 0.00 83 1008.2
20260505231547 54 220 8.7 20.9 0.00 0.00 0.00 83 1006.0
20260505230050 54 187 11.3 23.5 0.00 0.00 0.00 84 1005.7
20260505224548 54 162 10.4 18.2 0.00 0.00 0.00 83 1005.5
20260505223049 55 182 12.2 22.6 0.00 0.00 0.00 83 1005.2
20260505221544 55 186 9.6 22.6 0.00 0.00 0.00 82 1005.1
20260505220045 55 200 11.3 23.5 0.00 0.00 0.00 82 1005.1
20260505214543 55 207 10.4 23.5 0.00 0.00 0.00 82 1004.9
20260505213046 55 185 11.3 21.7 0.00 0.00 0.00 82 1004.9
20260505211544 56 172 11.3 23.5 0.00 0.00 0.00 81 1005.0
20260505210039 57 195 12.2 27.8 0.00 0.00 0.00 80 1005.2
20260505204538 56 214 11.3 19.1 0.00 0.00 0.00 81 1005.1
20260505203044 56 180 13.0 25.2 0.00 0.00 0.00 81 1005.2
20260505201536 56 188 12.2 21.7 0.00 0.00 0.00 82 1005.4
20260505200036 56 175 10.4 21.7 0.00 0.00 0.00 82 1005.3
20260505194534 56 212 10.4 23.5 0.00 0.00 0.00 82 1005.7
20260505193042 56 196 12.2 22.6 0.00 0.00 0.00 83 1006.0
20260505191529 55 195 13.0 20.9 0.00 0.00 0.00 83 1006.3
20260505190038 56 176 12.2 20.0 0.00 0.00 0.00 82 1006.5
20260505184530 56 165 11.3 18.2 0.00 0.00 0.00 83 1006.5
20260505183027 56 182 12.2 21.7 0.00 0.00 0.00 83 1006.7
20260505181523 55 188 9.6 19.1 0.00 0.00 0.00 84 1006.9
20260505180028 55 200 11.3 17.4 0.00 0.00 0.00 83 1007.1
20260505174518 55 210 11.3 18.2 0.00 0.00 0.00 83 1007.5
20260505173016 54 195 11.3 16.5 0.00 0.00 0.00 85 1007.6
20260505171515 54 179 9.6 16.5 0.00 0.00 0.00 84 1007.5
20260505170016 58 185 8.7 12.2 0.00 0.00 0.00 79 1007.7
20260505164510 55 190 7.8 12.2 0.00 0.00 0.00 82 1008.0
20260505163009 55 184 10.4 16.5 0.00 0.00 0.00 84 1008.2
20260505161507 54 202 8.7 15.6 0.00 0.00 0.00 83 1008.6
20260505153004 57 181 3.5 7.8 0.00 0.00 0.00 82 1009.2
20260505151502 53 198 5.2 13.9 0.00 0.00 0.00 86 1009.6
20260505124548 54 191 8.7 13.0 0.00 0.00 0.00 83 1009.0
20260505123056 54 179 7.8 12.2 0.00 0.00 0.00 83 1008.8
20260505121545 54 203 5.2 12.2 0.00 0.00 0.00 83 1008.9
20260505120054 53 204 7.0 13.0 0.00 0.00 0.00 83 1008.9
20260505114548 53 177 8.7 18.2 0.00 0.00 0.00 83 1009.1
20260505113050 53 172 7.8 15.6 0.00 0.00 0.00 84 1009.1
20260505111544 52 167 6.1 9.6 0.00 0.00 0.00 84 1009.1
20260505101538 50 195 2.6 9.6 0.00 0.00 0.00 86 1008.9
20260505100038 50 188 4.3 8.7 0.00 0.00 0.00 86 1008.8
20260505094534 49 210 2.6 6.1 0.00 0.00 0.00 86 1008.9
20260505093034 49 224 2.6 5.2 0.00 0.00 0.00 87 1009.0
20260505091533 49 195 1.7 4.3 0.00 0.00 0.00 87 1008.9
20260505090032 49 198 0.9 4.3 0.00 0.00 0.00 86 1009.0
20260505084544 49 185 1.7 4.3 0.00 0.00 0.00 85 1009.1
20260505083046 50 169 1.7 4.3 0.00 0.00 0.00 85 1009.1
20260505081537 49 191 2.6 4.3 0.00 0.00 0.00 85 1009.0
20260505080043 48 195 0.9 3.5 0.00 0.00 0.00 86 1009.0
20260505074525 49 189 0.9 4.3 0.00 0.00 0.00 85 1009.0
20260505073035 50 169 1.7 4.3 0.00 0.00 0.00 84 1009.0
20260505071526 50 193 0.9 2.6 0.00 0.00 0.00 82 1009.0
20260505070020 51 198 1.7 3.5 0.00 0.00 0.00 82 1008.9
20260505064518 50 184 0.9 3.5 0.00 0.00 0.00 82 1008.9
20260505063016 51 197 1.7 4.3 0.00 0.00 0.00 80 1008.9
20260505061524 52 159 1.7 3.5 0.00 0.00 0.00 79 1009.0
20260505060015 52 221 1.7 5.2 0.00 0.00 0.00 78 1008.9
20260505054510 53 169 2.6 6.1 0.00 0.00 0.00 77 1008.9
20260505053008 53 196 2.6 7.0 0.00 0.00 0.00 77 1008.8
20260505051506 53 195 2.6 6.1 0.00 0.00 0.00 77 1008.8
20260505041601 56 212 4.3 9.6 0.00 0.00 0.00 72 1008.3
20260505040050 57 163 4.3 12.2 0.00 0.00 0.00 69 1008.2
20260505034548 57 212 3.5 7.0 0.00 0.00 0.00 69 1008.2